GW3564 Weather Reports


Display with metric or nautical units.
time (UTC)temp
F
wind
direction
speed
MPH
gust
MPH
rain 1hr
in
rain 24hr
in
rain mn
in
humidity
%
barometer
mb
20260502152143 51 247 2.0 2.0 0.00 0.00 0.00 53 1015.7
20260502151640 50 165 0.0 1.0 0.00 0.00 0.00 53 1015.8
20260502151137 50 263 2.0 2.0 0.00 0.00 0.00 52 1015.9
20260502150635 49 209 2.0 2.0 0.00 0.00 0.00 57 1015.9
20260502150131 49 211 0.0 1.0 0.00 0.00 0.00 52 1015.9
20260502130519 45 196 0.0 0.0 0.00 0.00 0.00 66 1016.0
20260502123502 44 184 0.0 0.0 0.00 0.00 0.00 69 1015.7
20260502122959 44 186 0.0 0.0 0.00 0.00 0.00 71 1015.9
20260502122455 44 221 2.0 2.0 0.00 0.00 0.00 69 1015.6
20260502121953 44 187 0.0 1.0 0.00 0.00 0.00 70 1015.7
20260502121450 44 202 1.0 1.0 0.00 0.00 0.00 70 1015.8
20260502120948 44 185 0.0 1.0 0.00 0.00 0.00 71 1016.0
20260502120444 44 182 0.0 0.0 0.00 0.00 0.00 73 1015.8
20260502115438 43 195 0.0 0.0 0.00 0.00 0.00 71 1016.0
20260502114934 44 185 0.0 0.0 0.00 0.00 0.00 75 1016.0
20260502114431 43 190 1.0 1.0 0.00 0.00 0.00 73 1015.7
20260502113928 43 189 0.0 1.0 0.00 0.00 0.00 71 1015.8
20260502113426 43 211 0.0 1.0 0.00 0.00 0.00 74 1015.7
20260502112925 42 206 1.0 1.0 0.00 0.00 0.00 72 1015.6
20260502112421 42 181 0.0 0.0 0.00 0.00 0.00 76 1015.6
20260502111919 42 177 0.0 0.0 0.00 0.00 0.00 79 1015.6
20260502111416 42 186 0.0 0.0 0.00 0.00 0.00 75 1015.4
20260502110914 42 188 0.0 0.0 0.00 0.00 0.00 77 1015.4
20260502110412 42 187 0.0 0.0 0.00 0.00 0.00 78 1015.5
20260502105908 42 186 0.0 0.0 0.00 0.00 0.00 79 1015.4
20260502105405 41 184 0.0 0.0 0.00 0.00 0.00 75 1015.3
20260502104903 42 182 0.0 0.0 0.00 0.00 0.00 77 1015.5
20260502104400 42 186 0.0 0.0 0.00 0.00 0.00 77 1015.3
20260502103857 42 176 0.0 0.0 0.00 0.00 0.00 74 1015.3
20260502103355 42 183 0.0 0.0 0.00 0.00 0.00 72 1015.3
20260502102852 42 187 0.0 0.0 0.00 0.00 0.00 71 1015.5
20260502102348 42 195 0.0 0.0 0.00 0.00 0.00 73 1015.6
20260502101846 43 183 0.0 0.0 0.00 0.00 0.00 74 1015.7
20260502101344 43 312 0.0 0.0 0.00 0.00 0.00 69 1015.5
20260502100842 44 204 1.0 1.0 0.00 0.00 0.00 66 1015.6
20260502100341 43 183 0.0 1.0 0.00 0.00 0.00 68 1015.5
20260502091314 44 278 3.0 3.0 0.00 0.00 0.00 66 1015.6
20260502090812 44 248 2.0 2.0 0.00 0.00 0.00 67 1015.7
20260502090309 44 266 3.0 3.0 0.00 0.00 0.00 69 1015.6
20260502071204 47 202 1.0 1.0 0.00 0.00 0.00 77 1015.3
20260502070702 47 188 1.0 1.0 0.00 0.00 0.00 78 1015.1
20260502070200 47 185 1.0 1.0 0.00 0.00 0.00 77 1015.2
20260502065658 47 186 0.0 0.0 0.00 0.00 0.00 78 1015.2
20260502065155 47 191 0.0 0.0 0.00 0.00 0.00 79 1015.5
20260502064654 47 181 0.0 0.0 0.00 0.00 0.00 78 1015.5
20260502064150 47 198 0.0 1.0 0.00 0.00 0.00 77 1015.5
20260502063648 47 194 1.0 1.0 0.00 0.00 0.00 78 1015.5
20260502063146 47 190 0.0 0.0 0.00 0.00 0.00 79 1015.8
20260502062643 47 183 0.0 1.0 0.00 0.00 0.00 79 1015.5
20260502062140 48 185 0.0 0.0 0.00 0.00 0.00 77 1015.7
20260502061639 48 198 0.0 1.0 0.00 0.00 0.00 75 1015.8
20260502061137 48 203 1.0 1.0 0.00 0.00 0.00 75 1015.7
20260502060636 48 198 0.0 1.0 0.00 0.00 0.00 75 1015.6
20260502060133 47 188 2.0 2.0 0.00 0.00 0.00 76 1015.7
20260502055631 47 199 1.0 1.0 0.00 0.00 0.00 81 1015.4
20260502055128 47 181 0.0 0.0 0.00 0.00 0.00 80 1015.5
20260502054627 47 228 2.0 2.0 0.00 0.00 0.00 78 1015.6
20260502054124 47 187 0.0 0.0 0.00 0.00 0.00 81 1015.5
20260502053621 47 198 1.0 1.0 0.00 0.00 0.00 78 1015.6
20260502053118 47 185 0.0 1.0 0.00 0.00 0.00 83 1015.4
20260502052617 47 192 0.0 0.0 0.00 0.00 0.00 82 1015.6
20260502052115 47 185 0.0 0.0 0.00 0.00 0.00 82 1015.8
20260502051613 47 184 0.0 0.0 0.00 0.00 0.00 82 1015.8
20260502051110 47 184 0.0 0.0 0.00 0.00 0.00 79 1015.5
20260502050606 47 187 0.0 0.0 0.00 0.00 0.00 80 1015.6
20260502045559 48 183 0.0 0.0 0.00 0.00 0.00 79 1015.6
20260502045057 48 184 0.0 0.0 0.00 0.00 0.00 79 1015.5
20260502044553 48 184 0.0 0.0 0.00 0.00 0.00 79 1015.4
20260502044050 49 184 0.0 0.0 0.00 0.00 0.00 76 1015.5
20260502043548 49 186 0.0 0.0 0.00 0.00 0.00 75 1015.7
20260502043044 49 199 1.0 1.0 0.00 0.00 0.00 76 1015.6
20260502042544 49 183 0.0 0.0 0.00 0.00 0.00 76 1015.8
20260502042042 49 176 0.0 0.0 0.00 0.00 0.00 75 1015.4
20260502041540 50 172 0.0 0.0 0.00 0.00 0.00 76 1015.6
20260502041037 50 181 0.0 0.0 0.00 0.00 0.00 76 1015.6
20260502040533 50 201 0.0 1.0 0.00 0.00 0.00 74 1015.5
20260502040031 50 199 1.0 1.0 0.00 0.00 0.00 75 1015.7
20260502035526 51 182 0.0 0.0 0.00 0.00 0.00 74 1015.5
20260502035024 51 183 1.0 1.0 0.00 0.00 0.00 72 1015.5
20260502034522 51 200 1.0 1.0 0.00 0.00 0.00 73 1015.6
20260502034020 51 260 2.0 2.0 0.00 0.00 0.00 73 1015.2
20260502033518 51 195 0.0 1.0 0.00 0.00 0.00 73 1015.3
20260502033015 51 186 0.0 0.0 0.00 0.00 0.00 72 1015.4
20260502032511 52 223 1.0 2.0 0.00 0.00 0.00 72 1015.5
20260502032008 52 203 1.0 1.0 0.00 0.00 0.00 72 1015.3
20260502031506 52 201 1.0 1.0 0.00 0.00 0.00 72 1015.3
20260502031004 52 233 2.0 2.0 0.00 0.00 0.00 72 1015.2
20260502030502 52 184 2.0 3.0 0.00 0.00 0.00 72 1015.3
20260502030000 52 186 0.0 0.0 0.00 0.00 0.00 72 1015.3
20260502025456 52 240 2.0 2.0 0.00 0.00 0.00 72 1015.1
20260502024954 52 185 1.0 1.0 0.00 0.00 0.00 73 1015.1
20260502024452 52 181 1.0 1.0 0.00 0.00 0.00 72 1015.2
20260502023950 53 229 1.0 1.0 0.00 0.00 0.00 71 1015.2
20260502023447 53 260 2.0 2.0 0.00 0.00 0.00 70 1015.0
20260502022944 53 191 1.0 1.0 0.00 0.00 0.00 70 1015.1
20260502022440 53 282 3.0 3.0 0.00 0.00 0.00 69 1015.0
20260502021938 53 301 3.0 3.0 0.00 0.00 0.00 68 1014.5
20260502021435 53 277 3.0 3.0 0.00 0.00 0.00 68 1014.4
20260502020932 54 167 2.0 2.0 0.00 0.00 0.00 68 1014.5
20260502020430 54 255 5.0 8.0 0.00 0.00 0.00 66 1014.4
20260502015926 55 242 3.0 3.0 0.00 0.00 0.00 65 1014.0
20260502015425 55 276 5.0 8.0 0.00 0.00 0.00 64 1013.8
20260502014921 55 208 3.0 3.0 0.00 0.00 0.00 63 1013.6
20260502014418 56 287 5.0 6.0 0.00 0.00 0.00 61 1013.7
20260502013914 56 204 1.0 1.0 0.00 0.00 0.00 59 1013.5
20260502013410 57 285 2.0 2.0 0.00 0.00 0.00 57 1013.7
20260502012907 56 269 2.0 2.0 0.00 0.00 0.00 57 1013.4
20260502012405 55 236 1.0 1.0 0.00 0.00 0.00 67 1013.5
20260502011902 55 190 0.0 0.0 0.00 0.00 0.00 71 1013.3
20260502011358 55 176 0.0 1.0 0.00 0.00 0.00 69 1012.9
20260502010855 55 126 1.0 2.0 0.00 0.00 0.00 68 1013.0
20260502010351 56 184 0.0 0.0 0.00 0.00 0.00 67 1012.7
20260502005848 56 199 0.0 1.0 0.00 0.00 0.00 68 1012.6
20260502005346 56 198 1.0 1.0 0.00 0.00 0.00 64 1012.4
20260502004843 57 179 0.0 0.0 0.00 0.00 0.00 64 1012.5
20260502004339 57 195 0.0 1.0 0.00 0.00 0.00 64 1012.4
20260502003837 57 195 0.0 1.0 0.00 0.00 0.00 65 1011.9
20260502003334 57 185 0.0 0.0 0.00 0.00 0.00 66 1012.2
20260502002830 57 187 0.0 0.0 0.00 0.00 0.00 64 1012.1
20260502002328 57 184 0.0 0.0 0.00 0.00 0.00 63 1012.1
20260502001825 58 186 0.0 1.0 0.00 0.00 0.00 62 1012.0
20260502001323 58 186 0.0 0.0 0.00 0.00 0.00 61 1012.0
20260502000820 59 188 0.0 0.0 0.00 0.00 0.00 63 1012.0
20260502000318 59 175 0.0 0.0 0.00 0.00 0.00 61 1011.9
20260501235814 59 179 0.0 1.0 0.00 0.00 0.00 60 1011.8
20260501235310 60 213 1.0 1.0 0.00 0.00 0.00 62 1011.9
20260501234805 60 172 0.0 0.0 0.00 0.00 0.00 58 1011.6
20260501234303 60 183 0.0 0.0 0.00 0.00 0.00 56 1011.5
20260501233801 61 191 0.0 1.0 0.00 0.00 0.00 52 1011.6
20260501233258 62 185 0.0 1.0 0.00 0.00 0.00 54 1011.3
20260501232753 62 189 2.0 3.0 0.00 0.00 0.00 44 1011.5
20260501232251 63 184 0.0 0.0 0.00 0.00 0.00 48 1011.1
20260501231748 63 173 0.0 0.0 0.00 0.00 0.00 51 1011.3
20260501231246 63 178 0.0 0.0 0.00 0.00 0.00 54 1011.1
20260501230744 64 181 0.0 0.0 0.00 0.00 0.00 51 1011.3
20260501230243 64 183 0.0 0.0 0.00 0.00 0.00 51 1011.3
20260501225740 63 215 0.0 0.0 0.00 0.00 0.00 50 1011.2
20260501225237 64 191 0.0 0.0 0.00 0.00 0.00 52 1011.2
20260501224733 64 195 0.0 1.0 0.00 0.00 0.00 51 1011.3
20260501224231 64 189 2.0 2.0 0.00 0.00 0.00 50 1011.1
20260501223727 64 167 0.0 0.0 0.00 0.00 0.00 51 1011.2
20260501223223 64 176 0.0 0.0 0.00 0.00 0.00 50 1011.1
20260501222719 65 112 3.0 3.0 0.00 0.00 0.00 48 1011.0
20260501222217 67 239 1.0 1.0 0.00 0.00 0.00 48 1011.2
20260501221713 67 259 3.0 3.0 0.00 0.00 0.00 46 1011.2
20260501221211 66 239 1.0 2.0 0.00 0.00 0.00 49 1011.2
20260501220708 65 194 1.0 2.0 0.00 0.00 0.00 48 1011.2
20260501220205 65 193 1.0 1.0 0.00 0.00 0.00 50 1011.1
20260501215702 65 202 1.0 1.0 0.00 0.00 0.00 50 1011.2
20260501215157 64 201 0.0 0.0 0.00 0.00 0.00 50 1011.2
20260501214652 64 212 1.0 1.0 0.00 0.00 0.00 51 1011.2
20260501214148 64 195 0.0 0.0 0.00 0.00 0.00 51 1011.2
20260501213645 64 190 1.0 1.0 0.00 0.00 0.00 48 1011.3
20260501213141 64 187 0.0 0.0 0.00 0.00 0.00 49 1011.5
20260501212638 64 180 0.0 0.0 0.00 0.00 0.00 49 1011.3
20260501212135 65 190 1.0 1.0 0.00 0.00 0.00 48 1011.5
20260501211632 65 201 1.0 1.0 0.00 0.00 0.00 47 1011.6
20260501211130 66 208 0.0 1.0 0.00 0.00 0.00 47 1011.5
20260501210626 67 198 1.0 2.0 0.00 0.00 0.00 45 1011.5
20260501210122 68 274 4.0 7.0 0.00 0.00 0.00 43 1011.7
20260501205619 67 315 2.0 3.0 0.00 0.00 0.00 44 1011.9
20260501205117 68 150 1.0 2.0 0.00 0.00 0.00 45 1011.5
20260501204613 68 165 2.0 2.0 0.00 0.00 0.00 43 1011.3
20260501204109 66 185 1.0 1.0 0.00 0.00 0.00 42 1011.9
20260501203606 67 190 5.0 8.0 0.00 0.00 0.00 46 1011.5
20260501203103 66 257 2.0 2.0 0.00 0.00 0.00 45 1011.6
20260501202600 67 157 1.0 2.0 0.00 0.00 0.00 44 1011.7
20260501202057 67 162 1.0 1.0 0.00 0.00 0.00 44 1011.7
20260501201554 67 167 1.0 1.0 0.00 0.00 0.00 46 1012.2
20260501201050 67 226 2.0 2.0 0.00 0.00 0.00 42 1011.9
20260501200547 67 231 2.0 2.0 0.00 0.00 0.00 43 1012.1
20260501200045 67 198 2.0 3.0 0.00 0.00 0.00 45 1011.9
20260501195542 67 216 1.0 2.0 0.00 0.00 0.00 46 1012.2
20260501195037 67 190 0.0 0.0 0.00 0.00 0.00 45 1012.3
20260501194533 66 256 3.0 3.0 0.00 0.00 0.00 42 1012.2
20260501194029 67 195 2.0 2.0 0.00 0.00 0.00 43 1012.2
20260501193527 66 219 1.0 1.0 0.00 0.00 0.00 46 1012.7
20260501193025 66 150 2.0 2.0 0.00 0.00 0.00 46 1012.7
20260501192521 66 172 2.0 2.0 0.00 0.00 0.00 45 1012.7
20260501192020 66 222 2.0 3.0 0.00 0.00 0.00 43 1013.0
20260501191516 66 199 0.0 1.0 0.00 0.00 0.00 45 1012.9
20260501191014 66 214 2.0 2.0 0.00 0.00 0.00 44 1012.9
20260501190509 66 192 1.0 1.0 0.00 0.00 0.00 43 1013.2
20260501190005 66 130 1.0 1.0 0.00 0.00 0.00 44 1013.4
20260501185501 66 236 2.0 3.0 0.00 0.00 0.00 40 1013.0
20260501184957 65 176 1.0 2.0 0.00 0.00 0.00 43 1013.5
20260501184453 65 270 2.0 2.0 0.00 0.00 0.00 42 1013.3
20260501183948 65 257 3.0 3.0 0.00 0.00 0.00 45 1013.6
20260501183445 66 194 1.0 2.0 0.00 0.00 0.00 39 1013.7
20260501182942 66 231 2.0 2.0 0.00 0.00 0.00 39 1013.7
20260501182439 66 237 3.0 3.0 0.00 0.00 0.00 39 1013.9
20260501181935 66 205 1.0 2.0 0.00 0.00 0.00 39 1013.9
20260501181427 65 181 1.0 1.0 0.00 0.00 0.00 39 1013.6
20260501180924 66 189 2.0 2.0 0.00 0.00 0.00 38 1013.8
20260501180421 66 220 1.0 1.0 0.00 0.00 0.00 40 1014.2
20260501175917 66 175 2.0 2.0 0.00 0.00 0.00 42 1013.9
20260501175414 66 214 3.0 5.0 0.00 0.00 0.00 39 1014.0
20260501174911 64 198 3.0 3.0 0.00 0.00 0.00 43 1014.0
20260501174409 63 281 4.0 5.0 0.00 0.00 0.00 42 1014.1
20260501173906 63 268 2.0 5.0 0.00 0.00 0.00 46 1014.3
20260501173404 64 135 2.0 2.0 0.00 0.00 0.00 41 1014.2
20260501172859 64 146 1.0 1.0 0.00 0.00 0.00 41 1014.3
20260501172354 65 343 3.0 3.0 0.00 0.00 0.00 41 1014.4
20260501171850 64 212 1.0 1.0 0.00 0.00 0.00 44 1014.4
20260501171347 64 173 1.0 2.0 0.00 0.00 0.00 42 1014.5
20260501170844 62 196 1.0 1.0 0.00 0.00 0.00 44 1014.7
20260501170341 63 77 1.0 2.0 0.00 0.00 0.00 43 1014.7
20260501165838 63 183 1.0 2.0 0.00 0.00 0.00 46 1014.7
20260501165336 62 230 2.0 2.0 0.00 0.00 0.00 44 1014.7
20260501164834 63 273 3.0 3.0 0.00 0.00 0.00 42 1014.9
20260501164331 62 126 1.0 2.0 0.00 0.00 0.00 43 1015.1
20260501163826 62 261 3.0 5.0 0.00 0.00 0.00 46 1015.1
20260501163323 60 188 2.0 2.0 0.00 0.00 0.00 48 1015.1
20260501162820 60 204 1.0 1.0 0.00 0.00 0.00 49 1015.2
20260501162317 61 212 2.0 3.0 0.00 0.00 0.00 44 1015.5
20260501161814 62 122 3.0 3.0 0.00 0.00 0.00 47 1015.5
20260501161310 60 230 1.0 1.0 0.00 0.00 0.00 49 1015.5
20260501160807 60 177 1.0 1.0 0.00 0.00 0.00 48 1015.6
20260501160303 59 177 0.0 1.0 0.00 0.00 0.00 47 1015.7
20260501155801 60 336 1.0 2.0 0.00 0.00 0.00 47 1015.8
20260501155258 60 174 2.0 3.0 0.00 0.00 0.00 48 1015.9
20260501154754 60 194 1.0 1.0 0.00 0.00 0.00 48 1015.6